Total_Precipitation_Accumulation
0.01 0.01 0.00 0.01 0.01 0.02 0.03 0.02 0.06 0.06 0.08 0.10 0.09 0.09 0.12 0.17 0.22 0.22 0.15 0.21 0.21 0.26 0.13 0.17 0.17 0.22 0.12 0.17 0.29 0.29 0.35 0.21 0.26 0.26 0.31 0.20 0.25 0.25 0.29 0.21 0.21 0.26 0.26 0.21 0.21 0.21 0.18 0.15 0.15 0.13 0.08 0.06 0.04 0.04 -0.03 -0.03 -0.03 -0.01 -0.02 0.02 0.02 0.01 0.01 0.01 0.01 0.01 0.01 -0.00 -0.07 -0.07 -0.12 -0.12 -0.14 -0.14 -0.14 -0.08 -0.06 -0.06 -0.07 -0.05 -0.05 -0.04 -0.00 0.01 0.01 0.04
0.00 0.00 0.00 0.00 0.00 0.01 0.01 0.01 0.02 0.02 0.03 0.06 0.03 0.03 0.04 0.05 0.08 0.08 0.03 0.05 0.05 0.08 0.05 0.07 0.07 0.09 0.06 0.07 0.10 0.10 0.12 0.07 0.10 0.10 0.15 0.07 0.11 0.11 0.18 0.11 0.11 0.13 0.17 0.09 0.09 0.14 0.15 0.06 0.06 0.08 0.01 0.01 0.02 0.02 -0.02 -0.05 -0.05 -0.06 -0.08 -0.03 -0.03 -0.05 -0.01 -0.00 -0.00 -0.02 0.00 -0.00 -0.00 -0.00 -0.02 -0.02 -0.09 -0.09 -0.11 -0.13 -0.09 -0.09 -0.10 -0.07 -0.07 -0.04 -0.01 0.01 0.01 0.04
-0.00 0.00 0.00 0.00 0.00 0.00 0.01 0.01 0.01 0.01 0.02 0.02 0.02 0.02 0.01 0.02 0.02 0.02 0.02 0.01 0.01 0.02 0.01 0.01 0.01 0.04 0.02 0.03 0.04 0.04 0.05 0.03 0.04 0.04 0.04 0.04 0.05 0.05 0.07 0.05 0.05 0.05 0.07 0.03 0.03 0.03 0.05 0.01 0.01 0.01 -0.00 -0.01 -0.01 -0.01 -0.01 -0.04 -0.04 -0.07 -0.08 -0.08 -0.08 -0.08 -0.07 -0.05 -0.05 -0.03 -0.02 -0.01 -0.00 -0.00 -0.01 -0.01 -0.03 -0.03 -0.03 -0.14 -0.15 -0.15 -0.12 -0.09 -0.09 -0.06 -0.03 0.00 0.00 0.04
0.00 0.00 0.00 0.00 0.00 0.00 0.01 0.03 0.03 0.03 0.03 0.02 0.05 0.05 0.05 0.04 0.02 0.02 0.03 0.01 0.01 0.01 0.01 0.01 0.01 0.01 0.01 0.01 0.02 0.02 0.02 0.01 0.02 0.02 0.03 0.03 0.04 0.04 0.05 0.03 0.03 0.03 0.03 0.01 0.01 0.01 0.01 0.00 0.00 0.00 -0.00 -0.00 -0.00 -0.00 -0.01 -0.02 -0.02 -0.04 -0.05 -0.09 -0.09 -0.08 -0.07 -0.06 -0.06 -0.05 -0.05 -0.04 -0.02 -0.02 -0.00 -0.01 -0.01 -0.01 -0.01 -0.05 -0.12 -0.12 -0.10 -0.09 -0.09 -0.04 -0.02 0.00 0.00 0.01
0.00 0.00 0.00 0.00 0.00 0.01 0.01 0.00 0.02 0.02 0.04 0.05 0.02 0.02 0.03 0.05 0.05 0.05 0.02 0.03 0.03 0.02 0.01 0.01 0.01 0.01 0.00 0.00 0.00 0.00 0.00 0.00 0.01 0.01 0.02 0.00 0.01 0.01 0.03 0.00 0.00 0.01 0.01 0.00 0.00 0.00 0.00 0.00 0.00 -0.00 -0.00 -0.00 -0.00 -0.00 -0.01 -0.01 -0.01 -0.01 -0.01 -0.03 -0.03 -0.08 -0.06 -0.05 -0.05 -0.05 -0.07 -0.05 -0.05 -0.05 -0.04 -0.05 -0.01 -0.01 -0.01 -0.00 -0.01 -0.01 -0.01 -0.06 -0.06 -0.04 -0.01 0.00 0.00 0.01
0.00 0.00 0.00 -0.00 -0.00 0.00 0.00 0.00 0.00 0.00 0.00 0.00 0.00 0.00 -0.00 0.00 0.00 0.00 0.00 0.00 0.00 0.00 0.00 0.00 0.00 0.00 0.00 0.00 0.00 0.00 0.00 0.00 0.00 0.00 0.00 0.00 0.00 0.00 0.00 -0.00 -0.00 0.00 0.00 0.00 0.00 0.00 -0.00 -0.00 -0.00 -0.00 -0.00 -0.00 -0.00 -0.00 -0.01 -0.01 -0.01 -0.01 -0.01 -0.02 -0.02 -0.05 -0.05 -0.06 -0.06 -0.06 -0.05 -0.07 -0.08 -0.08 -0.07 -0.08 -0.05 -0.05 -0.01 -0.01 -0.00 -0.00 -0.01 -0.02 -0.02 -0.03 -0.03 -0.00 -0.00 0.00
0.00 0.00 0.00 0.00 0.00 0.00 0.00 0.00 0.00 0.00 0.00 0.00 0.00 0.00 0.00 0.00 0.00 0.00 0.00 -0.00 -0.00 0.00 0.00 0.00 0.00 0.00 0.00 0.00 0.00 0.00 0.00 0.00 0.00 0.00 0.00 0.00 0.00 0.00 0.00 -0.00 -0.00 -0.00 -0.00 -0.00 -0.00 -0.00 -0.00 -0.00 -0.00 -0.00 -0.00 -0.00 -0.01 -0.01 -0.01 -0.01 -0.01 -0.01 -0.01 -0.02 -0.02 -0.03 -0.04 -0.05 -0.05 -0.05 -0.05 -0.05 -0.05 -0.05 -0.07 -0.08 -0.08 -0.08 -0.07 -0.04 -0.01 -0.01 -0.02 -0.02 -0.02 -0.03 -0.02 -0.01 -0.01 0.00
0.00 0.00 0.00 -0.00 -0.00 0.00 0.00 0.00 0.00 0.00 0.00 0.00 0.00 0.00 0.00 0.00 0.00 0.00 0.00 0.00 0.00 0.00 0.00 0.00 0.00 0.00 0.00 0.00 0.00 0.00 0.00 0.00 0.00 0.00 0.00 0.00 -0.00 -0.00 -0.00 -0.00 -0.00 -0.00 -0.00 -0.00 -0.00 -0.01 -0.01 -0.01 -0.01 -0.01 -0.00 -0.01 -0.01 -0.01 -0.01 -0.01 -0.01 -0.01 -0.01 -0.01 -0.01 -0.02 -0.02 -0.02 -0.02 -0.02 -0.04 -0.05 -0.06 -0.06 -0.06 -0.05 -0.07 -0.07 -0.07 -0.05 -0.03 -0.03 -0.04 -0.05 -0.05 -0.08 -0.09 -0.08 -0.08 -0.04
0.00 0.00 0.00 0.00 0.00 0.00 0.00 0.00 0.00 0.00 0.00 0.00 0.00 0.00 0.00 0.00 0.00 0.00 0.00 0.00 0.00 0.00 0.00 0.00 0.00 0.00 0.00 0.00 0.00 0.00 0.00 0.00 0.00 0.00 0.00 0.00 -0.00 -0.00 -0.00 -0.00 -0.00 -0.00 -0.00 -0.00 -0.00 -0.01 -0.01 -0.01 -0.01 -0.01 -0.01 -0.01 -0.01 -0.01 -0.01 -0.01 -0.01 -0.01 -0.01 -0.01 -0.01 -0.02 -0.02 -0.02 -0.02 -0.02 -0.03 -0.05 -0.06 -0.06 -0.06 -0.06 -0.05 -0.05 -0.05 -0.05 -0.04 -0.04 -0.04 -0.05 -0.05 -0.06 -0.07 -0.08 -0.08 -0.06
0.00 0.00 0.00 0.00 0.00 0.00 0.00 0.00 0.00 0.00 0.00 0.00 0.00 0.00 0.00 0.00 0.00 0.00 0.00 0.00 0.00 0.00 0.00 0.00 0.00 0.00 0.00 0.00 0.00 0.00 0.00 0.00 0.00 0.00 0.00 -0.00 -0.00 -0.00 -0.00 -0.00 -0.00 -0.01 -0.01 -0.01 -0.01 -0.01 -0.01 -0.01 -0.01 -0.01 -0.01 -0.01 -0.01 -0.01 -0.01 -0.01 -0.01 -0.01 -0.01 -0.01 -0.01 -0.01 -0.01 -0.02 -0.02 -0.02 -0.03 -0.04 -0.04 -0.04 -0.07 -0.06 -0.07 -0.07 -0.05 -0.05 -0.04 -0.04 -0.04 -0.05 -0.05 -0.05 -0.07 -0.09 -0.09 -0.10
0.00 0.00 0.00 0.00 0.00 0.00 0.00 0.00 0.00 0.00 0.00 0.00 0.00 0.00 0.00 0.00 0.00 0.00 0.00 0.00 0.00 0.00 0.00 0.00 0.00 0.00 0.00 0.00 0.00 0.00 0.00 0.00 0.00 0.00 0.00 -0.00 -0.00 -0.00 -0.00 -0.00 -0.00 -0.01 -0.01 -0.01 -0.01 -0.01 -0.01 -0.02 -0.02 -0.02 -0.02 -0.02 -0.02 -0.02 -0.02 -0.02 -0.02 -0.02 -0.02 -0.02 -0.02 -0.01 -0.02 -0.02 -0.02 -0.02 -0.02 -0.02 -0.03 -0.03 -0.04 -0.05 -0.07 -0.07 -0.08 -0.08 -0.05 -0.05 -0.04 -0.04 -0.04 -0.05 -0.06 -0.09 -0.09 -0.09
0.00 0.00 0.00 0.00 0.00 0.00 0.00 0.00 0.00 0.00 0.00 0.00 0.00 0.00 0.00 0.00 0.00 0.00 0.00 0.00 0.00 0.00 0.00 0.00 0.00 0.00 0.00 0.00 0.00 0.00 0.00 0.00 0.00 0.00 0.00 -0.00 -0.00 -0.00 -0.00 -0.00 -0.00 -0.01 -0.01 -0.02 -0.02 -0.02 -0.02 -0.03 -0.03 -0.03 -0.03 -0.04 -0.03 -0.03 -0.02 -0.03 -0.03 -0.02 -0.03 -0.02 -0.02 -0.02 -0.02 -0.02 -0.02 -0.02 -0.02 -0.02 -0.02 -0.02 -0.03 -0.04 -0.06 -0.06 -0.07 -0.08 -0.08 -0.08 -0.07 -0.06 -0.06 -0.04 -0.05 -0.06 -0.06 -0.07
0.00 0.00 0.00 0.00 0.00 0.00 0.00 0.00 0.00 0.00 0.00 0.00 0.00 0.00 0.00 0.00 0.00 0.00 0.00 0.00 0.00 0.00 0.00 0.00 0.00 0.00 0.00 0.00 0.00 0.00 0.00 0.00 0.00 0.00 0.00 -0.00 -0.00 -0.00 -0.00 -0.00 -0.00 -0.00 -0.01 -0.01 -0.01 -0.02 -0.03 -0.04 -0.04 -0.04 -0.04 -0.05 -0.05 -0.05 -0.04 -0.04 -0.04 -0.03 -0.04 -0.03 -0.03 -0.03 -0.03 -0.03 -0.03 -0.03 -0.03 -0.02 -0.03 -0.03 -0.03 -0.04 -0.05 -0.05 -0.06 -0.07 -0.08 -0.08 -0.08 -0.07 -0.07 -0.06 -0.07 -0.06 -0.06 -0.06
0.00 0.01 0.00 0.00 0.00 0.00 0.00 0.00 0.00 0.00 0.00 0.00 0.00 0.00 0.00 0.00 0.00 0.00 0.00 0.00 0.00 0.00 0.00 0.00 0.00 0.00 0.00 0.00 0.00 0.00 0.00 0.00 0.00 0.00 0.00 0.00 -0.00 -0.00 -0.00 -0.00 -0.00 -0.00 -0.00 -0.01 -0.01 -0.01 -0.02 -0.02 -0.02 -0.04 -0.04 -0.05 -0.06 -0.06 -0.05 -0.05 -0.05 -0.04 -0.05 -0.04 -0.04 -0.04 -0.04 -0.04 -0.04 -0.03 -0.04 -0.03 -0.04 -0.04 -0.03 -0.03 -0.04 -0.04 -0.05 -0.07 -0.07 -0.07 -0.07 -0.08 -0.08 -0.08 -0.08 -0.07 -0.07 -0.07
0.01 0.01 0.01 0.01 0.01 0.00 0.00 0.00 0.00 0.00 0.00 0.00 0.00 0.00 0.00 0.00 0.00 0.00 0.00 0.00 0.00 0.00 0.00 0.00 0.00 0.00 0.00 0.00 0.00 0.00 0.00 0.00 0.00 0.00 0.00 0.00 0.00 0.00 0.00 -0.00 -0.00 -0.00 -0.00 -0.00 -0.00 -0.01 -0.01 -0.01 -0.01 -0.03 -0.04 -0.04 -0.05 -0.05 -0.06 -0.06 -0.06 -0.06 -0.07 -0.06 -0.06 -0.05 -0.06 -0.05 -0.05 -0.05 -0.05 -0.04 -0.05 -0.05 -0.04 -0.04 -0.05 -0.05 -0.05 -0.07 -0.08 -0.08 -0.08 -0.09 -0.09 -0.09 -0.08 -0.08 -0.08 -0.07
0.01 0.01 0.01 0.01 0.01 0.01 0.00 0.00 0.00 0.00 0.00 0.00 0.00 0.00 0.00 0.00 0.00 0.00 0.00 0.00 0.00 0.00 0.00 0.00 0.00 -0.00 0.00 0.00 0.00 0.00 0.00 0.00 0.00 0.00 0.00 0.00 0.00 0.00 0.00 0.00 0.00 -0.00 -0.00 -0.00 -0.00 -0.00 -0.01 -0.01 -0.01 -0.02 -0.03 -0.03 -0.04 -0.04 -0.06 -0.06 -0.06 -0.07 -0.07 -0.07 -0.07 -0.07 -0.07 -0.07 -0.07 -0.06 -0.07 -0.06 -0.07 -0.07 -0.06 -0.05 -0.05 -0.05 -0.05 -0.06 -0.06 -0.06 -0.07 -0.07 -0.07 -0.09 -0.09 -0.08 -0.08 -0.06
0.01 0.01 0.01 0.01 0.01 0.01 0.00 0.00 0.00 0.00 0.00 0.00 0.00 0.00 0.00 0.00 0.00 0.00 0.00 0.00 0.00 0.00 0.00 -0.00 -0.00 -0.00 -0.00 -0.00 0.00 0.00 0.00 0.00 0.00 0.00 0.00 0.00 0.00 0.00 0.00 0.00 0.00 -0.00 -0.00 -0.00 -0.00 -0.00 -0.00 -0.01 -0.01 -0.01 -0.01 -0.01 -0.02 -0.02 -0.03 -0.05 -0.05 -0.06 -0.07 -0.07 -0.07 -0.07 -0.08 -0.08 -0.08 -0.07 -0.08 -0.07 -0.08 -0.08 -0.07 -0.07 -0.07 -0.07 -0.06 -0.06 -0.06 -0.06 -0.06 -0.06 -0.06 -0.07 -0.07 -0.09 -0.09 -0.07
0.01 0.01 0.01 0.01 0.01 0.00 0.00 0.00 0.00 0.00 0.00 0.00 0.00 0.00 0.00 0.00 0.00 0.00 0.00 0.00 0.00 -0.00 0.00 0.00 0.00 -0.00 0.00 0.00 0.00 0.00 0.00 0.00 0.00 0.00 -0.00 -0.00 -0.00 -0.00 0.00 0.00 0.00 -0.00 -0.00 -0.00 -0.00 -0.00 -0.01 -0.01 -0.01 -0.01 -0.01 -0.01 -0.02 -0.02 -0.02 -0.03 -0.03 -0.05 -0.06 -0.07 -0.07 -0.07 -0.09 -0.09 -0.09 -0.09 -0.09 -0.09 -0.08 -0.08 -0.09 -0.08 -0.09 -0.09 -0.07 -0.06 -0.07 -0.07 -0.06 -0.06 -0.06 -0.06 -0.07 -0.07 -0.07 -0.07
0.02 0.01 0.01 0.01 0.01 0.01 0.00 0.00 0.00 0.00 0.00 0.00 0.00 0.00 0.00 0.00 0.00 0.00 0.00 0.00 0.00 0.00 0.00 0.00 0.00 0.00 0.00 0.00 0.00 0.00 0.00 -0.00 -0.00 -0.00 -0.00 -0.00 0.00 0.00 0.00 0.00 0.00 0.00 0.00 0.00 0.00 -0.00 -0.01 -0.01 -0.01 -0.01 -0.01 -0.01 -0.01 -0.01 -0.02 -0.04 -0.04 -0.05 -0.06 -0.07 -0.07 -0.07 -0.09 -0.11 -0.11 -0.10 -0.10 -0.10 -0.10 -0.10 -0.10 -0.10 -0.11 -0.11 -0.10 -0.08 -0.08 -0.08 -0.07 -0.06 -0.06 -0.06 -0.06 -0.06 -0.06 -0.06
0.02 0.01 0.01 0.01 0.01 0.01 0.01 0.01 0.01 0.01 0.00 0.00 0.00 0.00 0.00 0.00 0.00 0.00 0.00 0.00 0.00 0.00 0.01 0.01 0.01 0.01 0.01 0.00 0.00 0.00 -0.00 -0.00 -0.01 -0.01 -0.00 0.00 0.00 0.00 0.00 0.00 0.00 0.00 0.00 0.00 0.00 -0.00 -0.00 -0.00 -0.00 -0.01 -0.01 -0.01 -0.01 -0.01 -0.01 -0.02 -0.02 -0.05 -0.06 -0.07 -0.07 -0.08 -0.12 -0.13 -0.13 -0.12 -0.12 -0.11 -0.10 -0.10 -0.12 -0.11 -0.11 -0.11 -0.11 -0.09 -0.09 -0.09 -0.07 -0.07 -0.07 -0.05 -0.05 -0.06 -0.06 -0.06
0.01 0.01 0.01 0.01 0.01 0.01 0.02 0.01 0.00 0.00 0.00 0.00 0.00 0.00 0.01 0.00 0.01 0.01 0.01 0.01 0.01 0.01 0.02 0.02 0.02 0.01 0.01 0.00 0.00 0.00 -0.00 -0.01 -0.02 -0.02 -0.02 -0.02 -0.00 -0.00 0.00 -0.00 -0.00 -0.00 -0.00 -0.00 -0.00 0.00 -0.00 -0.00 -0.00 -0.01 -0.01 -0.01 -0.01 -0.01 -0.01 -0.02 -0.02 -0.04 -0.05 -0.07 -0.07 -0.07 -0.10 -0.13 -0.13 -0.14 -0.17 -0.14 -0.13 -0.13 -0.14 -0.14 -0.15 -0.15 -0.14 -0.12 -0.12 -0.12 -0.10 -0.07 -0.07 -0.06 -0.06 -0.06 -0.06 -0.06
0.01 0.01 0.01 0.01 0.01 0.01 0.01 0.01 0.00 0.00 0.00 0.01 0.01 0.01 0.02 0.02 0.03 0.03 0.03 0.03 0.03 0.02 0.03 0.02 0.02 0.01 0.00 0.00 0.00 0.00 0.00 -0.00 -0.02 -0.02 -0.03 -0.02 -0.00 -0.00 -0.00 0.00 0.00 -0.00 -0.00 -0.00 -0.00 -0.00 -0.00 -0.00 -0.00 -0.00 -0.01 -0.01 -0.01 -0.01 -0.01 -0.01 -0.01 -0.03 -0.05 -0.07 -0.07 -0.08 -0.10 -0.14 -0.14 -0.17 -0.18 -0.17 -0.15 -0.15 -0.16 -0.15 -0.17 -0.17 -0.16 -0.15 -0.15 -0.15 -0.12 -0.12 -0.12 -0.08 -0.07 -0.06 -0.06 -0.06
0.00 0.00 0.00 0.01 0.01 0.01 0.01 0.01 0.00 0.00 0.00 0.03 0.03 0.03 0.04 0.04 0.06 0.06 0.06 0.06 0.06 0.01 0.01 0.01 0.01 0.01 -0.01 -0.00 -0.00 -0.00 0.00 0.00 0.02 0.02 0.01 0.01 0.00 0.00 0.00 -0.01 -0.01 -0.01 -0.01 -0.00 -0.00 -0.00 -0.00 -0.00 -0.00 -0.00 -0.00 -0.00 -0.00 -0.00 -0.00 -0.00 -0.00 -0.00 -0.02 -0.04 -0.04 -0.08 -0.10 -0.13 -0.13 -0.17 -0.21 -0.20 -0.18 -0.18 -0.19 -0.18 -0.19 -0.19 -0.19 -0.17 -0.17 -0.17 -0.14 -0.12 -0.12 -0.10 -0.08 -0.07 -0.07 -0.06
0.01 0.01 0.01 0.01 0.01 0.00 0.01 0.01 0.01 0.01 0.02 0.05 0.05 0.05 0.06 0.06 0.04 0.04 0.04 0.02 0.02 -0.02 -0.02 -0.02 -0.02 -0.01 0.00 0.01 0.01 0.01 0.01 0.02 0.02 0.02 0.04 0.00 -0.01 -0.01 -0.01 -0.01 -0.01 -0.01 -0.01 -0.00 -0.00 -0.00 -0.00 -0.00 -0.00 -0.00 -0.00 -0.00 -0.00 -0.00 -0.00 -0.00 -0.00 -0.00 -0.01 -0.02 -0.02 -0.06 -0.09 -0.11 -0.11 -0.14 -0.17 -0.21 -0.24 -0.24 -0.26 -0.23 -0.20 -0.20 -0.22 -0.21 -0.21 -0.21 -0.19 -0.17 -0.17 -0.16 -0.13 -0.11 -0.11 -0.08
0.02 0.03 0.03 0.02 0.02 0.01 0.05 0.06 0.06 0.06 0.05 0.11 0.11 0.11 0.11 0.07 0.01 0.01 0.00 -0.01 -0.01 -0.01 -0.02 -0.02 -0.02 -0.01 0.02 0.03 0.02 0.02 0.01 0.01 0.01 0.01 0.00 -0.01 -0.01 -0.01 -0.01 -0.01 -0.01 -0.01 -0.01 -0.00 -0.00 -0.00 -0.00 -0.00 -0.00 -0.00 -0.00 -0.00 -0.00 -0.00 -0.00 -0.00 -0.00 -0.00 -0.00 -0.01 -0.01 -0.04 -0.08 -0.11 -0.11 -0.14 -0.17 -0.21 -0.25 -0.25 -0.28 -0.28 -0.24 -0.24 -0.26 -0.23 -0.23 -0.23 -0.20 -0.19 -0.19 -0.18 -0.15 -0.14 -0.14 -0.10
-0.00 0.00 0.01 0.02 0.02 0.03 -0.00 0.01 0.05 0.05 0.09 0.03 0.05 0.05 0.07 0.05 0.08 0.08 0.05 0.02 0.02 0.06 0.03 0.02 0.02 0.01 0.04 0.01 0.01 0.01 0.00 0.00 -0.00 -0.00 -0.00 0.01 -0.00 -0.00 -0.00 -0.01 -0.01 -0.01 -0.01 -0.02 -0.02 -0.01 -0.00 -0.01 -0.01 -0.00 -0.00 -0.00 -0.00 -0.00 -0.00 -0.00 -0.00 -0.00 -0.00 -0.01 -0.01 -0.01 -0.02 -0.05 -0.05 -0.10 -0.14 -0.16 -0.20 -0.20 -0.25 -0.29 -0.30 -0.30 -0.33 -0.31 -0.31 -0.31 -0.28 -0.24 -0.24 -0.25 -0.21 -0.21 -0.21 -0.17
-0.00 -0.01 -0.01 -0.01 -0.01 -0.01 -0.00 -0.00 -0.00 -0.00 0.00 0.00 0.02 0.02 0.06 0.09 0.05 0.05 0.07 0.06 0.06 0.10 0.08 0.07 0.07 0.04 0.01 0.00 -0.00 -0.00 -0.00 -0.00 -0.00 -0.00 -0.00 0.01 0.01 0.01 0.00 -0.01 -0.01 -0.03 -0.03 -0.05 -0.05 -0.03 -0.01 -0.02 -0.02 -0.02 -0.01 -0.01 -0.01 -0.01 -0.00 -0.01 -0.01 -0.00 -0.01 -0.01 -0.01 -0.01 -0.02 -0.04 -0.04 -0.09 -0.13 -0.18 -0.20 -0.20 -0.25 -0.29 -0.32 -0.32 -0.36 -0.34 -0.37 -0.37 -0.33 -0.28 -0.28 -0.29 -0.26 -0.28 -0.28 -0.22
0.00 -0.00 -0.00 -0.00 -0.00 -0.00 -0.00 -0.00 -0.00 -0.00 -0.00 -0.01 -0.00 -0.00 0.01 0.02 -0.04 -0.04 -0.00 0.05 0.05 0.01 0.03 0.03 0.03 0.02 -0.03 -0.02 -0.00 -0.00 -0.00 -0.00 0.00 0.00 -0.00 -0.01 -0.01 -0.01 0.00 -0.00 -0.00 -0.01 -0.02 -0.02 -0.02 -0.03 -0.03 -0.02 -0.02 -0.02 -0.02 -0.02 -0.02 -0.02 -0.01 -0.01 -0.01 -0.01 -0.01 -0.02 -0.02 -0.02 -0.02 -0.04 -0.04 -0.07 -0.13 -0.17 -0.22 -0.22 -0.26 -0.27 -0.33 -0.33 -0.37 -0.40 -0.41 -0.41 -0.38 -0.32 -0.32 -0.34 -0.31 -0.37 -0.37 -0.30
0.00 0.00 -0.00 -0.00 -0.00 -0.00 -0.00 -0.00 -0.00 -0.00 -0.00 -0.00 -0.00 -0.00 -0.01 -0.03 -0.05 -0.05 -0.01 0.02 0.02 -0.07 -0.04 -0.03 -0.03 -0.03 -0.03 -0.02 -0.01 -0.01 -0.00 -0.00 0.00 0.00 -0.01 -0.01 -0.01 -0.01 -0.00 0.01 0.01 -0.00 -0.00 0.07 0.07 0.03 -0.00 -0.00 -0.00 -0.01 -0.02 -0.01 -0.01 -0.01 -0.01 -0.01 -0.01 -0.01 -0.01 -0.01 -0.01 -0.02 -0.03 -0.04 -0.04 -0.05 -0.06 -0.09 -0.16 -0.16 -0.22 -0.29 -0.32 -0.32 -0.35 -0.37 -0.43 -0.43 -0.44 -0.43 -0.43 -0.50 -0.45 -0.43 -0.43 -0.49
-0.00 0.00 0.00 0.00 0.00 -0.00 -0.00 0.00 -0.00 -0.00 -0.00 -0.01 -0.02 -0.02 -0.03 -0.11 -0.12 -0.12 -0.09 -0.09 -0.09 -0.11 -0.08 -0.06 -0.06 -0.06 -0.02 -0.01 -0.01 -0.01 -0.00 0.00 0.00 0.00 -0.02 -0.01 0.00 0.00 0.01 0.01 0.01 0.02 0.06 0.02 0.02 0.01 0.00 -0.00 -0.00 0.00 -0.00 0.00 -0.00 -0.00 -0.00 -0.00 -0.00 -0.00 -0.00 -0.00 -0.00 -0.01 -0.03 -0.05 -0.05 -0.06 -0.06 -0.08 -0.14 -0.14 -0.20 -0.28 -0.34 -0.34 -0.39 -0.41 -0.43 -0.43 -0.47 -0.49 -0.49 -0.59 -0.58 -0.53 -0.53 -0.53
-0.01 -0.00 -0.00 -0.00 -0.00 -0.01 -0.02 -0.02 -0.02 -0.02 -0.06 -0.05 -0.05 -0.05 -0.06 -0.04 -0.05 -0.05 -0.06 -0.08 -0.08 -0.02 -0.02 -0.02 -0.02 -0.02 -0.01 -0.01 -0.01 -0.01 0.01 0.00 0.00 0.00 -0.01 -0.02 -0.00 -0.00 0.03 -0.00 -0.00 0.00 0.01 0.03 0.03 0.01 -0.00 -0.00 -0.00 -0.00 0.00 -0.00 -0.00 -0.00 -0.00 -0.00 -0.00 -0.00 0.00 -0.00 -0.00 -0.00 -0.02 -0.05 -0.05 -0.07 -0.07 -0.08 -0.12 -0.12 -0.17 -0.27 -0.34 -0.34 -0.40 -0.42 -0.42 -0.42 -0.48 -0.52 -0.52 -0.65 -0.70 -0.67 -0.67 -0.66
-0.14 -0.13 -0.12 -0.11 -0.11 -0.00 -0.00 -0.00 -0.00 -0.00 0.00 -0.00 0.00 0.00 0.00 0.00 0.00 0.00 -0.00 -0.00 -0.00 0.04 0.05 0.04 0.04 0.04 -0.01 -0.01 -0.01 -0.01 0.00 0.00 0.00 0.00 -0.01 0.09 0.10 0.10 0.08 -0.02 -0.02 -0.02 -0.01 -0.03 -0.03 -0.05 -0.02 -0.01 -0.01 -0.00 0.00 -0.00 -0.00 -0.00 -0.00 -0.00 -0.00 -0.00 -0.00 -0.01 -0.01 -0.00 -0.00 -0.01 -0.01 -0.05 -0.08 -0.11 -0.09 -0.09 -0.09 -0.13 -0.24 -0.24 -0.35 -0.39 -0.43 -0.43 -0.50 -0.59 -0.59 -0.72 -0.77 -0.71 -0.71 -0.60
-0.00 -0.00 -0.00 -0.00 -0.00 -0.00 -0.00 -0.00 0.00 0.00 -0.00 0.00 0.00 0.00 0.00 0.00 0.01 0.01 0.02 0.03 0.03 -0.00 -0.01 -0.01 -0.01 -0.01 -0.01 -0.03 -0.03 -0.03 0.09 0.10 0.10 0.10 0.09 -0.02 -0.01 -0.01 0.02 -0.01 -0.01 -0.02 -0.04 -0.04 -0.04 -0.05 -0.04 -0.06 -0.06 -0.02 -0.00 -0.00 -0.00 -0.00 -0.00 -0.00 -0.00 -0.00 -0.01 -0.01 -0.01 -0.01 -0.01 -0.01 -0.01 -0.02 -0.05 -0.08 -0.13 -0.13 -0.12 -0.14 -0.15 -0.15 -0.26 -0.33 -0.36 -0.36 -0.43 -0.48 -0.48 -0.58 -0.70 -0.74 -0.74 -0.62
-0.00 -0.00 -0.00 -0.00 -0.00 -0.00 -0.00 -0.00 -0.00 -0.00 -0.00 0.00 0.00 0.00 0.00 0.00 -0.00 -0.00 0.00 -0.00 -0.00 -0.00 -0.00 -0.00 -0.00 -0.00 0.25 0.18 0.12 0.12 0.00 0.01 0.00 0.00 0.00 -0.06 -0.04 -0.04 -0.01 -0.05 -0.05 -0.05 -0.06 -0.12 -0.12 -0.12 -0.10 -0.08 -0.08 -0.10 -0.05 -0.01 -0.01 -0.01 -0.00 -0.00 -0.00 -0.00 -0.00 -0.01 -0.01 -0.01 -0.01 -0.01 -0.01 -0.02 -0.05 -0.09 -0.13 -0.13 -0.15 -0.21 -0.20 -0.20 -0.30 -0.35 -0.39 -0.39 -0.41 -0.49 -0.49 -0.58 -0.60 -0.62 -0.62 -0.56
-0.00 -0.00 -0.00 -0.00 -0.00 -0.00 -0.00 -0.00 -0.00 -0.00 -0.00 0.00 0.00 0.00 0.00 0.00 0.00 0.00 0.00 0.00 0.00 0.12 0.16 0.21 0.21 0.25 0.00 0.00 -0.00 -0.00 0.00 0.00 0.00 0.00 -0.01 -0.04 -0.07 -0.07 -0.06 -0.07 -0.07 -0.08 -0.12 -0.10 -0.10 -0.13 -0.11 -0.08 -0.08 -0.09 -0.08 -0.02 -0.01 -0.01 -0.00 -0.00 -0.00 -0.00 -0.00 -0.01 -0.01 -0.01 -0.01 -0.02 -0.02 -0.03 -0.05 -0.09 -0.13 -0.13 -0.18 -0.25 -0.28 -0.28 -0.33 -0.33 -0.38 -0.38 -0.40 -0.49 -0.49 -0.48 -0.49 -0.49 -0.49 -0.46
-0.03 -0.02 -0.01 -0.01 -0.01 -0.00 -0.00 -0.00 -0.00 -0.00 -0.04 -0.02 -0.01 -0.01 -0.00 -0.09 -0.07 -0.07 -0.04 0.01 0.01 -0.06 -0.05 -0.03 -0.03 -0.01 -0.03 -0.02 -0.01 -0.01 -0.00 -0.00 -0.00 -0.00 -0.02 -0.03 -0.07 -0.07 -0.09 -0.05 -0.05 -0.05 -0.09 -0.07 -0.07 -0.07 -0.10 -0.10 -0.10 -0.14 -0.13 -0.13 -0.12 -0.12 -0.04 -0.01 -0.01 -0.01 -0.01 -0.01 -0.01 -0.02 -0.02 -0.02 -0.02 -0.03 -0.04 -0.07 -0.09 -0.09 -0.12 -0.17 -0.26 -0.26 -0.32 -0.32 -0.32 -0.32 -0.42 -0.45 -0.45 -0.47 -0.48 -0.49 -0.49 -0.43
-0.04 -0.02 -0.01 -0.01 -0.01 -0.10 -0.08 -0.07 -0.06 -0.06 -0.12 -0.11 -0.11 -0.11 -0.10 -0.01 -0.01 -0.01 -0.03 -0.06 -0.06 -0.01 -0.03 -0.05 -0.05 -0.05 -0.02 -0.02 -0.02 -0.02 -0.01 -0.01 -0.01 -0.01 -0.01 -0.02 -0.05 -0.05 -0.07 -0.04 -0.04 -0.03 -0.06 -0.11 -0.11 -0.08 -0.07 -0.10 -0.10 -0.12 -0.15 -0.17 -0.12 -0.12 -0.06 -0.02 -0.02 -0.03 -0.01 -0.01 -0.01 -0.01 -0.02 -0.03 -0.03 -0.04 -0.05 -0.07 -0.08 -0.08 -0.11 -0.16 -0.25 -0.25 -0.33 -0.36 -0.36 -0.36 -0.52 -0.55 -0.55 -0.50 -0.52 -0.48 -0.48 -0.52
-0.12 -0.10 -0.09 -0.10 -0.10 -0.16 -0.16 -0.14 -0.14 -0.14 0.00 0.00 0.00 0.00 -0.00 0.00 0.00 0.00 -0.00 -0.00 -0.00 0.00 -0.00 -0.01 -0.01 -0.01 -0.00 -0.00 -0.01 -0.01 -0.00 -0.00 -0.01 -0.01 -0.01 -0.02 -0.06 -0.06 -0.07 -0.05 -0.05 -0.03 -0.05 -0.10 -0.10 -0.12 -0.12 -0.11 -0.11 -0.13 -0.11 -0.11 -0.06 -0.06 -0.05 -0.04 -0.04 -0.06 -0.03 -0.01 -0.01 -0.02 -0.02 -0.04 -0.04 -0.05 -0.07 -0.08 -0.08 -0.08 -0.08 -0.10 -0.15 -0.15 -0.25 -0.32 -0.42 -0.42 -0.55 -0.62 -0.62 -0.58 -0.59 -0.57 -0.57 -0.61
-0.15 -0.15 -0.14 -0.15 -0.15 -0.00 -0.00 -0.00 -0.00 -0.00 0.01 0.00 0.00 0.00 0.00 0.00 0.00 0.00 0.00 0.00 0.00 -0.00 -0.00 -0.00 -0.00 -0.00 -0.00 -0.00 -0.00 -0.00 -0.01 -0.01 -0.00 -0.00 -0.00 -0.01 -0.04 -0.04 -0.06 -0.04 -0.04 -0.02 -0.04 -0.08 -0.08 -0.14 -0.14 -0.13 -0.13 -0.12 -0.12 -0.09 -0.06 -0.06 -0.05 -0.06 -0.06 -0.06 -0.09 -0.07 -0.07 -0.08 -0.04 -0.03 -0.03 -0.05 -0.06 -0.08 -0.10 -0.10 -0.10 -0.11 -0.17 -0.17 -0.25 -0.38 -0.50 -0.50 -0.50 -0.59 -0.59 -0.63 -0.60 -0.66 -0.66 -0.61
-0.01 -0.01 -0.00 0.00 0.00 0.00 0.00 0.01 0.01 0.01 0.01 0.01 0.01 0.01 0.00 0.00 0.00 0.00 -0.00 -0.00 -0.00 -0.00 -0.00 -0.00 -0.00 -0.00 -0.00 -0.00 -0.00 -0.00 -0.00 -0.00 -0.00 -0.00 -0.00 -0.00 -0.01 -0.01 -0.02 -0.05 -0.05 -0.04 -0.02 0.02 0.02 -0.01 -0.08 -0.11 -0.11 -0.11 -0.09 -0.08 -0.06 -0.06 -0.06 -0.05 -0.05 -0.05 -0.09 -0.11 -0.11 -0.12 -0.10 -0.06 -0.06 -0.07 -0.07 -0.09 -0.10 -0.10 -0.11 -0.12 -0.18 -0.18 -0.25 -0.33 -0.41 -0.41 -0.36 -0.40 -0.40 -0.44 -0.40 -0.48 -0.48 -0.63
0.01 0.00 0.01 0.00 0.00 0.00 0.01 0.01 0.01 0.01 0.00 0.00 0.00 0.00 0.00 -0.00 -0.00 -0.00 -0.00 -0.00 -0.00 -0.00 -0.00 -0.01 -0.01 -0.00 -0.02 -0.01 -0.00 -0.00 -0.01 -0.01 -0.00 -0.00 -0.00 -0.00 -0.00 -0.00 -0.03 0.08 0.08 0.06 0.04 0.01 0.01 -0.00 -0.06 -0.08 -0.08 -0.10 -0.09 -0.08 -0.07 -0.07 -0.04 -0.04 -0.04 -0.05 -0.07 -0.11 -0.11 -0.12 -0.12 -0.10 -0.10 -0.13 -0.13 -0.13 -0.09 -0.09 -0.09 -0.11 -0.13 -0.13 -0.18 -0.26 -0.31 -0.31 -0.36 -0.33 -0.33 -0.36 -0.35 -0.38 -0.38 -0.48
0.00 -0.00 0.00 0.00 0.00 0.00 0.00 0.00 0.01 0.01 -0.01 -0.01 -0.01 -0.01 -0.00 -0.03 -0.02 -0.02 -0.01 -0.01 -0.01 -0.03 -0.02 -0.02 -0.02 -0.03 -0.04 -0.01 -0.00 -0.00 -0.00 -0.00 -0.00 -0.00 -0.00 0.10 0.11 0.11 0.11 -0.01 -0.01 -0.00 0.02 0.01 0.01 -0.03 -0.07 -0.12 -0.12 -0.12 -0.12 -0.12 -0.13 -0.13 -0.11 -0.05 -0.05 -0.05 -0.06 -0.06 -0.06 -0.08 -0.12 -0.14 -0.14 -0.19 -0.18 -0.13 -0.12 -0.12 -0.11 -0.13 -0.16 -0.16 -0.20 -0.28 -0.32 -0.32 -0.31 -0.32 -0.32 -0.31 -0.34 -0.34 -0.34 -0.37
-0.00 -0.00 -0.00 -0.00 -0.00 -0.00 -0.00 -0.00 -0.00 -0.00 -0.07 -0.06 -0.05 -0.05 -0.04 -0.04 -0.06 -0.06 -0.07 -0.06 -0.06 -0.04 -0.04 -0.04 -0.04 -0.05 -0.09 -0.08 -0.03 -0.03 -0.01 0.01 0.04 0.04 0.07 -0.03 -0.01 -0.01 -0.01 -0.05 -0.05 -0.03 -0.04 -0.07 -0.07 -0.06 -0.03 -0.08 -0.08 -0.11 -0.13 -0.13 -0.14 -0.14 -0.12 -0.08 -0.08 -0.08 -0.08 -0.07 -0.07 -0.13 -0.16 -0.18 -0.18 -0.21 -0.20 -0.16 -0.15 -0.15 -0.14 -0.16 -0.18 -0.18 -0.18 -0.25 -0.28 -0.28 -0.33 -0.37 -0.37 -0.32 -0.32 -0.30 -0.30 -0.34
-0.01 -0.00 -0.00 -0.00 -0.00 -0.00 -0.01 -0.03 -0.05 -0.05 -0.01 -0.01 -0.03 -0.03 -0.02 -0.01 -0.02 -0.02 -0.04 -0.05 -0.05 -0.03 -0.02 -0.03 -0.03 -0.05 -0.07 -0.05 -0.03 -0.03 -0.00 -0.00 -0.00 -0.00 -0.03 -0.01 -0.04 -0.04 -0.05 -0.06 -0.06 -0.06 -0.10 -0.14 -0.14 -0.05 -0.03 -0.06 -0.06 -0.06 -0.11 -0.14 -0.13 -0.13 -0.11 -0.09 -0.09 -0.09 -0.08 -0.09 -0.09 -0.11 -0.11 -0.13 -0.13 -0.14 -0.21 -0.24 -0.23 -0.23 -0.18 -0.19 -0.20 -0.20 -0.23 -0.32 -0.32 -0.32 -0.34 -0.37 -0.37 -0.37 -0.35 -0.30 -0.30 -0.33
-0.01 -0.01 -0.00 -0.03 -0.03 -0.02 -0.02 -0.01 -0.00 -0.00 -0.00 -0.01 -0.01 -0.01 -0.01 -0.01 -0.01 -0.01 -0.02 -0.03 -0.03 -0.03 -0.01 -0.01 -0.01 -0.03 -0.05 -0.02 -0.00 -0.00 -0.00 -0.00 -0.00 -0.00 -0.00 -0.00 -0.01 -0.01 -0.04 -0.04 -0.04 -0.05 -0.10 -0.12 -0.12 -0.04 -0.01 -0.02 -0.02 -0.01 -0.01 -0.08 -0.09 -0.09 -0.12 -0.10 -0.10 -0.10 -0.09 -0.09 -0.09 -0.12 -0.08 -0.08 -0.08 -0.15 -0.21 -0.25 -0.25 -0.25 -0.22 -0.19 -0.26 -0.26 -0.29 -0.33 -0.36 -0.36 -0.37 -0.36 -0.36 -0.41 -0.41 -0.38 -0.38 -0.34
-0.06 -0.05 -0.04 0.00 0.00 0.00 0.00 -0.00 -0.01 -0.01 -0.01 -0.01 -0.01 -0.01 -0.01 -0.04 -0.05 -0.05 -0.05 -0.05 -0.05 -0.04 -0.01 -0.01 -0.01 -0.07 -0.05 -0.01 -0.00 -0.00 -0.00 -0.00 -0.00 -0.00 -0.00 -0.00 -0.00 -0.00 -0.01 -0.02 -0.02 -0.05 -0.05 -0.05 -0.05 -0.04 -0.03 0.03 0.03 0.01 0.01 -0.04 -0.06 -0.06 -0.08 -0.09 -0.09 -0.09 -0.10 -0.12 -0.12 -0.15 -0.11 -0.08 -0.08 -0.17 -0.22 -0.23 -0.23 -0.23 -0.23 -0.26 -0.30 -0.30 -0.31 -0.33 -0.34 -0.34 -0.36 -0.36 -0.36 -0.38 -0.40 -0.37 -0.37 -0.35
-0.00 -0.00 -0.01 -0.00 -0.00 -0.00 -0.00 -0.00 -0.04 -0.04 -0.04 -0.04 -0.04 -0.04 -0.04 -0.03 -0.04 -0.04 -0.05 -0.05 -0.05 -0.08 -0.07 -0.05 -0.05 -0.14 -0.09 -0.05 -0.01 -0.01 -0.02 -0.01 -0.01 -0.01 -0.00 -0.00 -0.00 -0.00 -0.01 -0.00 -0.00 -0.02 -0.04 -0.05 -0.05 -0.03 -0.03 -0.01 -0.01 -0.01 0.01 -0.02 -0.05 -0.05 -0.06 -0.06 -0.06 -0.06 -0.10 -0.10 -0.10 -0.13 -0.16 -0.14 -0.14 -0.12 -0.16 -0.22 -0.25 -0.25 -0.27 -0.30 -0.36 -0.36 -0.34 -0.32 -0.36 -0.36 -0.35 -0.38 -0.38 -0.35 -0.35 -0.34 -0.34 -0.35
0.00 0.01 -0.00 -0.02 -0.02 -0.03 -0.03 -0.03 -0.03 -0.03 -0.05 -0.04 -0.03 -0.03 -0.03 -0.03 -0.05 -0.05 -0.06 -0.06 -0.06 -0.07 -0.12 -0.10 -0.10 -0.12 -0.10 -0.06 -0.03 -0.03 -0.04 -0.02 -0.01 -0.01 -0.00 -0.01 -0.00 -0.00 -0.00 -0.04 -0.04 -0.03 -0.01 -0.02 -0.02 -0.01 -0.02 -0.01 -0.01 -0.03 -0.03 0.02 0.03 0.03 -0.04 -0.04 -0.04 -0.03 -0.05 -0.08 -0.08 -0.10 -0.11 -0.11 -0.11 -0.08 -0.15 -0.23 -0.24 -0.24 -0.29 -0.37 -0.36 -0.36 -0.33 -0.31 -0.35 -0.35 -0.40 -0.44 -0.44 -0.41 -0.35 -0.36 -0.36 -0.36
-0.02 -0.02 -0.02 -0.03 -0.03 -0.03 -0.04 -0.04 -0.03 -0.03 -0.03 -0.02 -0.02 -0.02 -0.01 -0.02 -0.04 -0.04 -0.06 -0.06 -0.06 -0.07 -0.11 -0.13 -0.13 -0.08 -0.08 -0.06 -0.04 -0.04 -0.05 -0.05 -0.03 -0.03 -0.02 -0.03 -0.03 -0.03 -0.03 -0.06 -0.06 -0.09 -0.10 -0.06 -0.06 -0.11 -0.06 -0.02 -0.02 -0.04 -0.03 0.03 0.03 0.03 -0.01 -0.03 -0.03 -0.04 -0.06 -0.08 -0.08 -0.11 -0.08 -0.07 -0.07 -0.07 -0.15 -0.15 -0.25 -0.25 -0.27 -0.28 -0.24 -0.24 -0.28 -0.31 -0.35 -0.35 -0.40 -0.41 -0.41 -0.42 -0.40 -0.40 -0.40 -0.39
-0.02 -0.03 -0.03 -0.03 -0.03 -0.03 -0.02 -0.02 -0.01 -0.01 -0.01 -0.02 -0.01 -0.01 -0.01 -0.01 -0.01 -0.01 -0.02 -0.05 -0.05 -0.04 -0.06 -0.07 -0.07 -0.05 -0.05 -0.04 -0.04 -0.04 -0.01 -0.03 -0.04 -0.04 -0.04 -0.01 -0.03 -0.03 -0.04 -0.06 -0.06 -0.11 -0.15 -0.14 -0.14 -0.17 -0.16 -0.08 -0.08 -0.08 -0.06 -0.01 0.03 0.03 0.01 -0.02 -0.02 -0.06 -0.06 -0.09 -0.09 -0.11 -0.10 -0.08 -0.08 -0.07 -0.08 -0.15 -0.25 -0.25 -0.31 -0.29 -0.27 -0.27 -0.25 -0.27 -0.28 -0.28 -0.35 -0.32 -0.32 -0.41 -0.42 -0.40 -0.40 -0.40
-0.02 -0.03 -0.02 -0.02 -0.02 -0.01 -0.01 -0.01 -0.00 -0.00 -0.01 -0.00 -0.00 -0.00 -0.00 -0.01 -0.01 -0.01 -0.00 -0.01 -0.01 -0.02 -0.03 -0.02 -0.02 -0.04 -0.04 -0.02 -0.01 -0.01 -0.01 -0.02 -0.03 -0.03 -0.02 -0.00 -0.02 -0.02 -0.04 -0.06 -0.06 -0.14 -0.17 -0.17 -0.17 -0.22 -0.24 -0.20 -0.20 -0.13 -0.13 -0.08 -0.09 -0.09 -0.05 -0.00 -0.00 -0.05 -0.11 -0.12 -0.12 -0.12 -0.11 -0.09 -0.09 -0.07 -0.09 -0.14 -0.27 -0.27 -0.36 -0.33 -0.34 -0.34 -0.34 -0.31 -0.25 -0.25 -0.27 -0.37 -0.37 -0.42 -0.42 -0.39 -0.39 -0.40